Time,TemperatureF,DewpointF,PressureIn,WindDirection,WindDirectionDegrees,WindSpeedMPH,WindSpeedGustMPH,Humidity,HourlyPrecipIn,Conditions,Clouds,dailyrainin,SolarRadiationWatts/m^2,SoftwareType,DateUTC
2013-09-01 00:02:00,78.0,57.0,-100.00,NE,43,4.0,7.0,48,0.00,,,0.00,0.000000,,2013-09-01 07:02:00,
2013-09-01 00:12:00,78.0,57.0,-100.00,NE,43,4.0,7.0,48,0.00,,,0.00,0.000000,,2013-09-01 07:12:00,
2013-09-01 00:42:00,77.0,59.0,-100.00,NE,46,5.0,7.0,54,0.00,,,0.00,0.000000,,2013-09-01 07:42:00,
2013-09-01 00:52:00,77.0,59.0,-100.00,NE,46,5.0,7.0,54,0.00,,,0.00,0.000000,,2013-09-01 07:52:00,
2013-09-01 01:02:00,77.0,59.0,-100.00,NE,46,5.0,7.0,54,0.00,,,0.00,0.000000,,2013-09-01 08:02:00,
2013-09-01 01:11:00,77.0,59.0,-100.00,NE,46,5.0,7.0,54,0.00,,,0.00,0.000000,,2013-09-01 08:11:00,
2013-09-01 01:43:00,74.0,58.0,-100.00,North,354,1.0,6.0,58,0.00,,,-99.99,0.000000,,2013-09-01 08:43:00,
2013-09-01 01:52:00,74.0,58.0,-100.00,North,354,1.0,6.0,58,0.00,,,-99.99,0.000000,,2013-09-01 08:52:00,
2013-09-01 02:02:00,74.0,58.0,-100.00,North,354,1.0,6.0,58,0.00,,,-99.99,0.000000,,2013-09-01 09:02:00,
2013-09-01 02:11:00,74.0,58.0,-100.00,North,354,1.0,6.0,58,0.00,,,-99.99,0.000000,,2013-09-01 09:11:00,
2013-09-01 02:43:00,77.0,60.0,-100.00,NE,43,4.0,6.0,55,0.00,,,0.00,0.000000,,2013-09-01 09:43:00,
2013-09-01 02:53:00,77.0,60.0,-100.00,NE,43,4.0,6.0,55,0.00,,,0.00,0.000000,,2013-09-01 09:53:00,
2013-09-01 03:03:00,77.0,60.0,-100.00,NE,43,4.0,6.0,55,0.00,,,0.00,0.000000,,2013-09-01 10:03:00,
2013-09-01 03:12:00,77.0,60.0,-100.00,NE,43,4.0,6.0,55,0.00,,,0.00,0.000000,,2013-09-01 10:12:00,
2013-09-01 03:42:00,75.0,54.0,-100.00,NE,45,1.0,7.0,48,0.00,,,0.00,0.000000,,2013-09-01 10:42:00,
2013-09-01 03:53:00,75.0,54.0,-100.00,NE,45,1.0,7.0,48,0.00,,,0.00,0.000000,,2013-09-01 10:53:00,
2013-09-01 04:02:00,75.0,54.0,-100.00,NE,45,1.0,7.0,48,0.00,,,0.00,0.000000,,2013-09-01 11:02:00,
2013-09-01 04:12:00,75.0,54.0,-100.00,NE,45,1.0,7.0,48,0.00,,,0.00,0.000000,,2013-09-01 11:12:00,
2013-09-01 04:42:00,74.0,52.0,-100.00,North,9,1.0,3.0,47,0.00,,,0.00,0.000000,,2013-09-01 11:42:00,
2013-09-01 04:52:00,74.0,52.0,-100.00,North,9,1.0,3.0,47,0.00,,,0.00,0.000000,,2013-09-01 11:52:00,
2013-09-01 05:01:00,74.0,52.0,-100.00,North,9,1.0,3.0,47,0.00,,,0.00,0.000000,,2013-09-01 12:01:00,
2013-09-01 05:12:00,74.0,52.0,-100.00,North,9,1.0,3.0,47,0.00,,,0.00,0.000000,,2013-09-01 12:12:00,
2013-09-01 05:42:00,72.0,54.0,-100.00,NE,45,2.0,4.0,53,0.00,,,0.00,0.000000,,2013-09-01 12:42:00,
2013-09-01 05:52:00,72.0,54.0,-100.00,NE,45,2.0,4.0,53,0.00,,,0.00,0.000000,,2013-09-01 12:52:00,
2013-09-01 06:01:00,72.0,54.0,-100.00,NE,45,2.0,4.0,53,0.00,,,0.00,0.000000,,2013-09-01 13:01:00,
2013-09-01 06:11:00,72.0,54.0,-100.00,NE,45,2.0,4.0,53,0.00,,,0.00,0.000000,,2013-09-01 13:11:00,
2013-09-01 06:42:00,71.0,54.0,-100.00,NE,46,3.0,5.0,54,0.00,,,0.00,0.000000,,2013-09-01 13:42:00,
2013-09-01 06:52:00,71.0,54.0,-100.00,NE,46,3.0,5.0,54,0.00,,,0.00,0.000000,,2013-09-01 13:52:00,
2013-09-01 07:02:00,71.0,54.0,-100.00,NE,46,3.0,5.0,54,0.00,,,0.00,0.000000,,2013-09-01 14:02:00,
2013-09-01 07:11:00,71.0,54.0,-100.00,NE,46,3.0,5.0,54,0.00,,,0.00,0.000000,,2013-09-01 14:11:00,
2013-09-01 07:42:00,71.0,51.0,-100.00,NE,44,2.0,5.0,50,0.00,,,0.00,9.000000,,2013-09-01 14:42:00,
2013-09-01 07:52:00,71.0,51.0,-100.00,NE,44,2.0,5.0,50,0.00,,,0.00,9.000000,,2013-09-01 14:52:00,
2013-09-01 08:02:00,71.0,51.0,-100.00,NE,44,2.0,5.0,50,0.00,,,0.00,9.000000,,2013-09-01 15:02:00,
2013-09-01 08:11:00,71.0,51.0,-100.00,NE,44,2.0,5.0,50,0.00,,,0.00,9.000000,,2013-09-01 15:11:00,
2013-09-01 08:13:00,75.0,52.0,-100.00,NE,34,1.0,6.0,44,0.00,,,0.00,78.000000,,2013-09-01 15:13:00,
2013-09-01 08:45:00,75.0,52.0,-100.00,NE,34,1.0,6.0,44,0.00,,,0.00,78.000000,,2013-09-01 15:45:00,
2013-09-01 08:55:00,75.0,52.0,-100.00,NE,34,1.0,6.0,44,0.00,,,0.00,78.000000,,2013-09-01 15:55:00,
2013-09-01 09:05:00,75.0,52.0,-100.00,NE,34,1.0,6.0,44,0.00,,,0.00,78.000000,,2013-09-01 16:05:00,
2013-09-01 09:43:00,84.0,57.0,-100.00,WSW,249,4.0,8.0,40,0.00,,,0.00,262.000000,,2013-09-01 16:43:00,
2013-09-01 09:53:00,84.0,57.0,-100.00,WSW,249,4.0,8.0,40,0.00,,,0.00,262.000000,,2013-09-01 16:53:00,
2013-09-01 10:03:00,84.0,57.0,-100.00,WSW,249,4.0,8.0,40,0.00,,,0.00,262.000000,,2013-09-01 17:03:00,
2013-09-01 10:12:00,84.0,57.0,-100.00,WSW,249,4.0,8.0,40,0.00,,,0.00,262.000000,,2013-09-01 17:12:00,
2013-09-01 10:42:00,83.0,55.0,-100.00,SSW,193,7.0,11.0,39,0.00,,,0.00,378.000000,,2013-09-01 17:42:00,
2013-09-01 10:52:00,83.0,55.0,-100.00,SSW,193,7.0,11.0,39,0.00,,,0.00,378.000000,,2013-09-01 17:52:00,
2013-09-01 11:02:00,83.0,55.0,-100.00,SSW,193,7.0,11.0,39,0.00,,,0.00,378.000000,,2013-09-01 18:02:00,
2013-09-01 11:12:00,83.0,55.0,-100.00,SSW,193,7.0,11.0,39,0.00,,,0.00,378.000000,,2013-09-01 18:12:00,
2013-09-01 11:42:00,87.0,56.0,-100.00,SW,233,7.0,10.0,35,0.00,,,0.00,468.000000,,2013-09-01 18:42:00,
2013-09-01 11:52:00,87.0,56.0,-100.00,SW,233,7.0,10.0,35,0.00,,,0.00,468.000000,,2013-09-01 18:52:00,
2013-09-01 12:02:00,87.0,56.0,-100.00,SW,233,7.0,10.0,35,0.00,,,0.00,468.000000,,2013-09-01 19:02:00,
2013-09-01 12:12:00,87.0,56.0,-100.00,SW,233,7.0,10.0,35,0.00,,,0.00,468.000000,,2013-09-01 19:12:00,
2013-09-01 12:42:00,91.0,54.0,-100.00,WSW,246,8.0,12.0,29,0.00,,,0.00,794.000000,,2013-09-01 19:42:00,
2013-09-01 12:52:00,91.0,54.0,-100.00,WSW,246,8.0,12.0,29,0.00,,,0.00,794.000000,,2013-09-01 19:52:00,
2013-09-01 13:02:00,91.0,54.0,-100.00,WSW,246,8.0,12.0,29,0.00,,,0.00,794.000000,,2013-09-01 20:02:00,
2013-09-01 13:12:00,91.0,54.0,-100.00,WSW,246,8.0,12.0,29,0.00,,,0.00,794.000000,,2013-09-01 20:12:00,
2013-09-01 13:42:00,92.0,52.0,-100.00,WSW,243,6.0,12.0,26,0.00,,,0.00,807.000000,,2013-09-01 20:42:00,
2013-09-01 13:52:00,92.0,52.0,-100.00,WSW,243,6.0,12.0,26,0.00,,,0.00,807.000000,,2013-09-01 20:52:00,
2013-09-01 14:02:00,92.0,52.0,-100.00,WSW,243,6.0,12.0,26,0.00,,,0.00,807.000000,,2013-09-01 21:02:00,
2013-09-01 14:11:00,92.0,52.0,-100.00,WSW,243,6.0,12.0,26,0.00,,,0.00,807.000000,,2013-09-01 21:11:00,
2013-09-01 14:13:00,89.0,52.0,-100.00,WSW,247,6.0,11.0,28,0.00,,,0.00,488.000000,,2013-09-01 21:13:00,
2013-09-01 14:44:00,89.0,52.0,-100.00,WSW,247,6.0,11.0,28,0.00,,,0.00,488.000000,,2013-09-01 21:44:00,
2013-09-01 14:55:00,89.0,52.0,-100.00,WSW,247,6.0,11.0,28,0.00,,,0.00,488.000000,,2013-09-01 21:55:00,
2013-09-01 15:04:00,89.0,52.0,-100.00,WSW,247,6.0,11.0,28,0.00,,,0.00,488.000000,,2013-09-01 22:04:00,
2013-09-01 15:43:00,90.0,52.0,-100.00,NNW,343,2.0,8.0,28,0.00,,,0.00,220.000000,,2013-09-01 22:43:00,
2013-09-01 15:53:00,90.0,52.0,-100.00,NNW,343,2.0,8.0,28,0.00,,,0.00,220.000000,,2013-09-01 22:53:00,
2013-09-01 16:03:00,90.0,52.0,-100.00,NNW,343,2.0,8.0,28,0.00,,,0.00,220.000000,,2013-09-01 23:03:00,
2013-09-01 16:12:00,90.0,52.0,-100.00,NNW,343,2.0,8.0,28,0.00,,,0.00,220.000000,,2013-09-01 23:12:00,
2013-09-01 16:42:00,93.0,54.0,-100.00,NNW,346,5.0,10.0,27,0.00,,,0.00,409.000000,,2013-09-01 23:42:00,
2013-09-01 16:53:00,93.0,54.0,-100.00,NNW,346,5.0,10.0,27,0.00,,,0.00,409.000000,,2013-09-01 23:53:00,
2013-09-01 17:02:00,93.0,54.0,-100.00,NNW,346,5.0,10.0,27,0.00,,,0.00,409.000000,,2013-09-02 00:02:00,
2013-09-01 17:11:00,93.0,54.0,-100.00,NNW,346,5.0,10.0,27,0.00,,,0.00,409.000000,,2013-09-02 00:11:00,
2013-09-01 17:42:00,91.0,54.0,-100.00,NW,317,3.0,10.0,29,0.00,,,0.00,335.000000,,2013-09-02 00:42:00,
2013-09-01 17:52:00,91.0,54.0,-100.00,NW,317,3.0,10.0,29,0.00,,,0.00,335.000000,,2013-09-02 00:52:00,
2013-09-01 18:02:00,91.0,54.0,-100.00,NW,317,3.0,10.0,29,0.00,,,0.00,335.000000,,2013-09-02 01:02:00,
2013-09-01 18:12:00,91.0,54.0,-100.00,NW,317,3.0,10.0,29,0.00,,,0.00,335.000000,,2013-09-02 01:12:00,
2013-09-01 18:42:00,89.0,54.0,-100.00,West,265,4.0,7.0,31,0.00,,,0.00,95.000000,,2013-09-02 01:42:00,
2013-09-01 18:52:00,89.0,54.0,-100.00,West,265,4.0,7.0,31,0.00,,,0.00,95.000000,,2013-09-02 01:52:00,
2013-09-01 19:02:00,89.0,54.0,-100.00,West,265,4.0,7.0,31,0.00,,,0.00,95.000000,,2013-09-02 02:02:00,
2013-09-01 19:12:00,89.0,54.0,-100.00,West,265,4.0,7.0,31,0.00,,,0.00,95.000000,,2013-09-02 02:12:00,
2013-09-01 19:42:00,87.0,55.0,-100.00,SSW,203,2.0,6.0,34,0.00,,,0.00,34.000000,,2013-09-02 02:42:00,
2013-09-01 19:52:00,87.0,55.0,-100.00,SSW,203,2.0,6.0,34,0.00,,,0.00,34.000000,,2013-09-02 02:52:00,
2013-09-01 20:02:00,87.0,55.0,-100.00,SSW,203,2.0,6.0,34,0.00,,,0.00,34.000000,,2013-09-02 03:02:00,
2013-09-01 20:11:00,87.0,55.0,-100.00,SSW,203,2.0,6.0,34,0.00,,,0.00,34.000000,,2013-09-02 03:11:00,
2013-09-01 20:13:00,83.0,55.0,-100.00,NW,305,1.0,4.0,39,0.00,,,-99.99,1.000000,,2013-09-02 03:13:00,
2013-09-01 20:44:00,83.0,55.0,-100.00,NW,305,1.0,4.0,39,0.00,,,-99.99,1.000000,,2013-09-02 03:44:00,
2013-09-01 20:56:00,83.0,55.0,-100.00,NW,305,1.0,4.0,39,0.00,,,-99.99,1.000000,,2013-09-02 03:56:00,
2013-09-01 21:04:00,83.0,55.0,-100.00,NW,305,1.0,4.0,39,0.00,,,-99.99,1.000000,,2013-09-02 04:04:00,
2013-09-01 21:44:00,81.0,55.0,-100.00,ENE,60,4.0,6.0,41,0.00,,,0.00,0.000000,,2013-09-02 04:44:00,
2013-09-01 21:54:00,81.0,55.0,-100.00,ENE,60,4.0,6.0,41,0.00,,,0.00,0.000000,,2013-09-02 04:54:00,
2013-09-01 22:03:00,81.0,55.0,-100.00,ENE,60,4.0,6.0,41,0.00,,,0.00,0.000000,,2013-09-02 05:03:00,
2013-09-01 22:12:00,81.0,55.0,-100.00,ENE,60,4.0,6.0,41,0.00,,,0.00,0.000000,,2013-09-02 05:12:00,
2013-09-01 22:44:00,80.0,55.0,-100.00,NE,51,4.0,6.0,43,0.00,,,0.00,0.000000,,2013-09-02 05:44:00,
2013-09-01 22:52:00,80.0,55.0,-100.00,NE,51,4.0,6.0,43,0.00,,,0.00,0.000000,,2013-09-02 05:52:00,
2013-09-01 23:03:00,80.0,55.0,-100.00,NE,51,4.0,6.0,43,0.00,,,0.00,0.000000,,2013-09-02 06:03:00,
2013-09-01 23:12:00,80.0,55.0,-100.00,NE,51,4.0,6.0,43,0.00,,,0.00,0.000000,,2013-09-02 06:12:00,
2013-09-01 23:43:00,77.0,60.0,-100.00,NE,43,2.0,7.0,56,0.00,,,0.00,0.000000,,2013-09-02 06:43:00,
2013-09-01 23:52:00,77.0,60.0,-100.00,NE,43,2.0,7.0,56,0.00,,,0.00,0.000000,,2013-09-02 06:52:00,